Snowfall_Accumulation
0.0 0.0 0.0 0.0 0.0 0.0 0.0 0.0 0.0 0.0 0.0 0.0 0.0 0.0 0.0 0.0 0.0 0.0 0.0 0.0 0.0 0.0 0.0 0.0 0.0 0.0 0.0 0.0 0.0 0.0 0.0 0.0 0.0 0.0 0.0 0.0 0.0 0.0
0.0 0.0 0.0 0.0 0.0 0.0 0.0 0.0 0.0 0.0 0.0 0.0 0.0 0.0 0.0 0.0 0.0 0.0 0.0 0.0 0.0 0.0 0.0 0.0 0.0 0.0 0.0 0.0 0.0 0.0 0.0 0.0 0.0 0.0 0.0 0.0 0.0 0.0
0.0 0.0 0.0 0.0 0.0 0.0 0.0 0.0 0.0 0.0 0.0 0.0 0.0 0.0 0.0 0.0 0.0 0.0 0.0 0.0 0.0 0.0 0.0 0.0 0.0 0.0 0.0 0.0 0.0 0.0 0.0 0.0 0.0 0.0 0.0 0.0 0.0 0.0
0.0 0.0 0.0 0.0 0.0 0.0 0.0 0.0 0.0 0.0 0.0 0.1 0.4 0.5 0.3 0.0 0.0 0.0 0.0 0.0 0.0 0.0 0.0 0.0 0.0 0.0 0.0 0.0 0.0 0.0 0.0 0.0 0.0 0.0 0.0 0.0 0.0 0.0
0.0 0.0 0.0 0.0 0.0 0.0 0.0 0.2 0.3 0.1 1.0 0.7 0.4 0.1 0.3 0.0 1.3 0.1 0.0 0.0 0.0 0.0 0.0 0.0 0.0 0.0 0.0 0.0 0.0 0.0 0.0 0.0 0.0 0.0 0.0 0.0 0.0 0.0
0.0 0.0 0.0 0.0 0.0 0.4 0.7 1.7 1.5 1.1 0.6 0.3 0.4 0.4 0.9 0.6 0.4 0.6 0.2 0.2 0.0 0.0 0.0 0.0 0.0 0.0 0.0 0.0 0.0 0.0 0.0 0.0 0.0 0.0 0.0 0.0 0.0 0.0
0.0 0.2 0.1 0.6 0.4 0.4 1.0 1.0 0.8 0.7 1.3 2.5 1.4 1.1 0.5 0.3 0.3 0.2 0.3 0.1 0.1 0.1 0.0 0.0 0.0 0.0 0.0 0.0 0.0 0.0 0.0 0.0 0.0 0.0 0.0 0.0 0.0 0.0
0.0 0.4 1.2 1.7 1.2 0.5 0.1 0.1 0.0 1.4 2.2 1.5 1.7 0.2 0.1 0.1 0.0 0.3 1.1 0.8 1.3 0.0 0.0 0.0 0.0 0.0 0.0 0.0 0.0 0.0 0.0 0.0 0.0 0.0 0.0 0.0 0.0 0.0
2.8 3.3 2.1 1.4 1.9 1.1 0.4 0.2 0.5 0.1 0.0 0.3 0.1 0.3 0.2 0.2 1.0 1.0 0.9 1.6 0.9 0.0 0.0 0.2 0.0 0.0 0.0 0.0 0.0 0.0 0.0 0.0 0.0 0.0 0.0 0.0 0.0 0.0
3.4 2.6 2.0 1.6 0.9 0.4 0.5 0.3 0.1 0.0 0.0 0.1 0.1 0.2 0.5 0.1 0.5 0.9 0.9 1.1 0.3 0.0 0.0 1.8 0.0 0.0 0.0 0.0 0.0 0.0 0.0 0.0 0.0 0.0 0.0 0.0 0.0 0.0
0.5 0.0 0.0 0.0 0.0 0.0 0.2 0.1 0.1 0.1 0.0 0.0 0.1 0.0 0.0 0.0 0.0 0.6 2.2 3.4 2.2 0.2 0.0 0.9 0.1 0.1 0.1 0.0 0.0 0.0 0.0 0.0 0.0 0.0 0.0 0.0 0.0 0.0
0.9 0.0 0.0 0.0 0.0 0.1 0.1 0.2 0.4 0.0 0.5 0.2 0.0 0.0 0.0 0.0 0.0 0.0 1.6 7.8 5.5 3.2 0.2 3.1 0.3 0.9 4.4 0.0 0.0 0.0 0.0 0.0 0.0 0.0 0.0 0.0 0.0 0.2
0.6 0.4 0.0 0.0 0.1 0.0 0.0 0.1 0.4 0.2 0.1 0.1 0.2 0.1 0.0 0.0 0.7 0.5 0.2 3.7 10.1 7.7 0.0 7.0 8.3 1.7 7.0 2.0 0.0 0.0 0.0 0.0 0.1 0.0 0.0 0.0 0.4 0.7
0.2 0.0 0.1 0.1 0.0 0.0 0.0 0.0 0.2 0.1 0.4 0.9 0.9 0.9 0.8 0.3 0.1 0.4 0.4 0.2 0.6 3.6 1.0 1.8 16.7 5.0 11.4 8.8 1.0 0.0 0.0 0.0 0.0 0.3 0.2 0.7 0.8 0.8
0.1 0.1 0.0 0.0 0.0 0.0 0.0 0.1 0.0 0.2 1.2 1.2 0.8 0.6 0.3 0.6 0.9 1.3 1.1 1.3 1.2 0.5 0.4 0.9 4.7 5.0 10.6 13.5 7.0 0.6 1.7 0.1 0.1 1.1 1.7 2.2 2.2 2.5
0.0 0.2 0.2 0.3 0.1 0.1 0.1 0.1 0.0 0.2 1.4 2.0 1.7 0.7 0.9 1.1 1.2 0.9 2.5 1.5 3.6 1.6 1.3 0.8 1.3 4.6 11.0 4.7 8.1 4.8 2.0 6.0 0.9 0.8 2.0 1.3 1.3 1.6
0.6 0.8 0.7 1.2 1.1 0.6 0.7 0.5 0.8 1.2 1.7 1.2 1.8 1.7 1.2 1.2 1.2 1.1 2.7 3.4 6.5 1.8 1.8 1.5 1.9 2.5 2.8 4.7 10.1 2.8 3.1 2.6 2.3 3.1 3.1 2.3 0.6 1.3
2.1 2.2 1.6 1.6 1.6 1.3 0.9 0.6 0.9 0.9 1.2 1.9 2.8 2.8 5.0 4.5 3.6 4.3 3.7 5.8 7.8 4.9 5.6 4.9 3.9 6.7 5.0 4.3 2.7 5.3 4.3 3.3 2.3 2.5 2.9 7.1 2.7 0.4
2.4 0.9 1.6 2.2 2.5 2.1 2.1 2.6 2.8 1.2 2.2 5.2 7.5 7.5 8.5 7.8 6.7 6.6 5.6 6.5 7.3 6.5 7.0 7.1 9.7 13.9 17.9 8.0 3.9 1.5 9.2 5.9 2.6 3.0 2.9 4.6 6.1 3.0
1.1 1.5 1.8 2.5 2.9 3.6 4.4 3.5 3.9 4.8 6.2 7.3 9.4 10.6 11.8 13.7 10.3 9.3 7.6 10.7 10.6 6.7 7.6 8.3 8.9 13.1 26.3 20.3 14.7 4.7 2.5 6.1 8.3 7.8 5.0 3.7 4.3 0.8
1.4 2.1 2.4 3.3 3.6 3.0 4.1 5.7 6.2 7.2 8.3 10.0 8.4 10.0 10.3 15.3 11.4 7.9 8.7 6.1 9.3 10.2 11.8 5.9 5.2 4.5 9.7 16.4 19.9 8.5 5.9 2.0 2.2 10.3 9.4 10.2 6.4 4.6
1.8 2.0 1.7 2.0 2.7 3.5 4.9 5.4 6.5 5.6 6.7 6.4 6.7 8.1 9.3 12.5 14.0 10.7 9.2 12.7 8.4 7.4 8.6 6.7 6.9 7.5 10.4 16.8 13.0 6.1 5.7 5.0 4.0 2.3 2.2 7.8 21.0 24.7
2.0 2.5 1.9 2.5 2.6 4.0 5.7 5.9 5.5 4.8 5.1 7.6 7.9 8.2 9.9 13.0 8.0 9.9 11.0 10.0 10.5 11.8 9.1 11.0 8.6 6.6 6.4 7.1 8.2 8.2 5.6 4.9 5.2 6.6 5.9 2.7 2.5 2.5